GMT,Max TemperatureF,Mean TemperatureF,Min TemperatureF,Max Dew PointF,MeanDew PointF,Min DewpointF,Max Humidity, Mean Humidity, Min Humidity, Max Sea Level PressureIn, Mean Sea Level PressureIn, Min Sea Level PressureIn, Max VisibilityMiles, Mean VisibilityMiles, Min VisibilityMiles, Max Wind SpeedMPH, Mean Wind SpeedMPH, Max Gust SpeedMPH,PrecipitationIn, CloudCover, Events, WindDirDegrees
2013-11-1,51,45,37,43,41,37,100,82,71,29.59,29.57,29.56,6,6,6,23,15,29,0.00,4,Rain,237
2013-11-2,44,38,33,43,39,34,100,95,87,29.53,29.17,28.85,6,5,2,22,8,29,0.00,5,Rain,38
2013-11-3,48,40,33,39,37,32,93,81,66,29.30,29.22,29.00,6,6,6,21,13,32,0.00,3,Rain,269
2013-11-4,48,37,26,39,33,25,100,90,66,29.36,29.31,29.21,6,6,0,9,5,,0.00,1,Fog,259
2013-11-5,44,35,26,39,33,27,100,93,76,29.33,29.22,29.18,6,6,0,17,3,36,0.00,3,Fog-Rain,249
2013-11-6,46,40,35,43,39,34,93,89,81,29.39,29.31,29.24,6,6,4,13,7,,0.00,4,Rain,247
2013-11-7,48,42,37,43,40,36,100,86,76,29.47,29.42,29.36,6,6,3,24,12,36,0.00,5,Rain,226
2013-11-8,48,42,37,43,39,36,100,88,81,29.56,29.49,29.44,6,6,5,20,12,,0.00,4,Rain,235
2013-11-9,42,35,28,39,34,28,100,97,87,29.65,29.53,29.50,6,6,3,7,3,,0.00,4,Fog-Rain,244
2013-11-10,48,38,28,39,34,28,100,88,66,30.09,29.95,29.68,6,6,6,9,5,,0.00,1,Rain,34
2013-11-11,53,46,39,54,45,37,100,90,71,30.04,29.91,29.77,6,5,1,17,8,,0.00,6,Rain,224
2013-11-12,50,46,41,45,40,37,93,83,71,30.36,30.18,30.04,6,6,6,18,13,36,0.00,3,Rain,251
2013-11-13,50,46,41,46,42,39,93,85,76,30.36,30.14,29.83,6,6,4,28,14,31,0.00,5,Rain,228
2013-11-14,48,44,39,45,37,32,87,77,66,30.48,30.19,29.80,6,6,5,24,14,39,0.00,4,Rain,275
2013-11-15,51,46,42,48,45,39,94,88,81,30.48,30.42,30.36,6,6,4,16,9,,0.00,7,Rain,239
2013-11-16,51,46,37,50,46,36,100,87,76,30.36,30.29,30.21,6,6,2,25,17,,0.00,6,Rain,244
2013-11-17,42,35,28,41,36,28,100,97,87,30.36,30.18,29.92,6,3,0,8,3,,0.00,5,Fog,295
2013-11-18,44,38,32,43,35,32,100,92,70,29.92,29.81,29.77,6,4,0,16,4,,0.00,4,Fog-Rain-Snow,270
2013-11-19,44,36,28,41,32,25,93,86,75,30.04,29.88,29.62,6,6,3,24,7,,0.00,6,Rain,252
2013-11-20,46,42,39,43,34,27,87,73,61,29.83,29.57,29.42,6,6,6,25,16,33,0.00,3,Rain,309
2013-11-21,42,33,24,32,27,23,93,76,57,30.15,30.00,29.83,6,6,6,13,5,,0.00,2,,315
2013-11-22,39,29,19,30,26,19,100,93,70,30.27,30.24,30.18,6,6,0,5,1,,0.00,3,Fog,267
2013-11-23,46,36,26,39,33,27,100,93,76,30.42,30.34,30.27,6,6,4,5,2,,0.00,4,Fog,236
2013-11-24,35,30,24,36,29,23,100,98,93,30.69,30.58,30.45,6,4,0,4,1,,0.00,6,Fog,350
2013-11-25,35,30,26,36,31,27,100,99,93,30.71,30.70,30.69,6,2,0,4,1,,0.00,8,Fog,275
2013-11-26,51,43,35,48,45,36,100,94,87,30.69,30.60,30.54,6,6,3,14,6,,0.00,7,Rain,249
2013-11-27,53,50,48,48,48,46,94,89,77,30.54,30.51,30.48,6,6,3,14,11,,0.00,7,Rain,250
2013-11-28,48,42,35,46,40,34,100,92,76,30.60,30.53,30.36,6,6,6,22,6,,0.00,6,,257
2013-11-29,50,46,41,46,39,36,93,81,71,30.33,30.19,30.12,6,6,2,25,15,37,0.00,4,Rain,281
2013-11-30,48,42,35,46,39,32,100,86,81,30.39,30.36,30.30,6,6,6,15,8,,0.00,5,,247